Weather Roundup
Issued by NWS

Home | Current Version | Previous Version | Text Only | Print | Product List | Glossary On
Versions: 1 2 3 4 5 6 7 8 9 10 11 12 13 14 15 16 17 18 19 20 21 22 23 24 25 26 27 28 29 30 31 32 33 34 35 36 37 38 39 40 41 42 43 44 45 46 47 48 49 50
000
NZUS93 KARX 230259
HRRWXR

CURRENT HOURLY OBSERVATIONS ACROSS
MUCH OF THE UPPER MISSISSIPPI VALLEY
NATIONAL WEATHER SERVICE LA CROSSE WI
1000 PM CDT WED OCT 22 2014


...SOUTHEAST MINNESOTA...


CITY           SKY/WX    TMP DP  RH WIND       PRES   REMARKS
ROCHESTER      CLOUDY    53  38  56 S16       30.11S
ROCHESTER/MAYO FAIR      54  35  48 SE14G23   30.10S
WINONA         MOCLDY    54  39  58 SE5       30.14S
AUSTIN         MOCLDY    54  39  58 S12G17    30.09F
ALBERT LEA     PTCLDY    55  41  58 S9        30.11R
DODGE CENTER   CLOUDY    54  41  62 S18G25    30.08S
PRESTON        CLOUDY    50  40  68 S12       30.14S
OWATONNA       MOCLDY    55  39  54 S9        30.09R
FARIBAULT      MOCLDY    55  43  62 S9        30.09R
$$

...ELSEWHERE IN MINNESOTA...


CITY           SKY/WX    TMP DP  RH WIND       PRES   REMARKS
MINNEAPOLIS    CLOUDY    55  40  56 SE12      30.06R
INTNL FALLS    CLOUDY    54  41  61 S12G20    29.93F
DULUTH         CLOUDY    52  34  50 S10       30.03F
RED WING       NOT AVBL
REDWOOD FALLS  CLOUDY    57  52  83 S13       29.98S
MANKATO        MOCLDY    57  39  51 S15G22    30.04F
WORTHINGTON    CLOUDY    57  55  94 S12       30.03R
FAIRMONT       CLOUDY    57  45  62 S20G25    30.04F
$$

...SOUTHWEST WISCONSIN...


CITY           SKY/WX    TMP DP  RH WIND       PRES   REMARKS
LA CROSSE      CLOUDY    54  37  52 S9        30.16S
PRAIRIE DU CHI PTCLDY    49  36  61 E6        30.18S
BOSCOBEL       CLEAR     40  36  86 E3        30.20F
LONE ROCK      NOT AVBL
PLATTEVILLE    CLEAR     46  35  66 SE12      30.22S
FORT MC COY    PTCLDY    42  34  74 SE5       30.18F
VIROQUA        FAIR      48  36  62 SE7       30.17F
WIS DELLS      CLEAR     43  35  73 S3        30.21S
$$

...ELSEWHERE IN WISCONSIN...


CITY           SKY/WX    TMP DP  RH WIND       PRES   REMARKS
MILWAUKEE      CLEAR     41  35  79 S3        30.27S
MADISON        PTCLDY    46  38  73 S10       30.24S
GREEN BAY      CLEAR     40  37  89 S3        30.26S
EAU CLAIRE     NOT AVBL
BLACK RVR FLS  MOCLDY    40  34  77 SE3       30.16F
MEDFORD        MOCLDY    44  35  70 SE6       30.17S
WAUSAU         CLEAR     43  36  76 SE3       30.19S
WIS RAPIDS     CLEAR     43  35  73 SE7       30.21S
MARSHFIELD     CLEAR     45  36  70 SE7       30.18S
RICE LAKE      CLOUDY    53  38  58 SE14      30.12R
$$

...NORTHEAST IOWA...


CITY           SKY/WX    TMP DP  RH WIND       PRES   REMARKS
DECORAH        CLOUDY    50  37  62 S8        30.15S
MASON CITY     PTCLDY    54  42  64 S15       30.11R
CHARLES CITY   CLOUDY    54  39  58 SE12      30.14R
OELWEIN        MOCLDY    50  39  66 SE12      30.17S
$$

...ELSEWHERE IN IOWA...


CITY           SKY/WX    TMP DP  RH WIND       PRES   REMARKS
DES MOINES     MOCLDY    58  45  62 SE10      30.12S
IOWA CITY      PTCLDY    46  39  76 SE6       30.21S
FORT DODGE     CLOUDY    57  46  67 W9        30.14R
$$

...NORTHERN ILLINOIS...


CITY           SKY/WX    TMP DP  RH WIND       PRES   REMARKS
CHICAGO-OHARE  CLEAR     40  35  83 CALM      30.27R
CHICAGO-MIDWAY CLEAR     49  38  65 CALM      30.28R
MOLINE         CLEAR     41  35  79 E6        30.23F
ROCKFORD       CLEAR     43  35  73 S6        30.28R
PEORIA         FAIR      47  37  68 CALM      30.26R
$$

NOTE: "FAIR" INDICATES FEW OR NO CLOUDS BELOW 12,000 FEET WITH NO
SIGNIFICANT WEATHER AND/OR OBSTRUCTIONS TO VISIBILITY. WIND
SPEEDS ARE IN MILES-PER-HOUR.



USA.gov is the U.S. government's official web portal to all federal, state and local government web resources and services.